sat.trackr.live / text

‹ back to catalog

STARLINK-11115 [DTC]

NORAD 60305 · 2024-133E

PAYLOAD ACTIVE UNKNOWN

§ Identity

Operator
Country
US
Launch date
2024-07-28
Launch site
AFWTR
Launch vehicle
Mass (kg)
RCS (m²)

Purposes: comms

External: N2YO · Heavens-Above · Gunter

§ Orbital elements

Epoch: 2026-05-25T05:11:44.301408Z

Period
91.74 min
Inclination
53.1582°
Eccentricity
0.0000949
Mean motion
15.69711349 rev/d
Perigee alt
359.1 km
Apogee alt
360.4 km
Semi-major
6,737.9 km
B*
1.0818e-5
RAAN
128.9634°
Arg perigee
88.7463°
Mean anomaly
271.3664°
Rev number
10,575

§ Raw data

STARLINK-11115 [DTC]1 60305U 24133E   26145.21648497  .00000722  00000+0  10818-4 0  99982 60305  53.1582 128.9634 0000949  88.7463 271.3664 15.69711349105754

JSON: /api/v1/satellites/60305 · /tle

For live sub-satellite position, see the globe view (requires WebGL).

§ Visibility from observer

Set your observer location to see the next 7 days of passes ≥ 10°. The values pass through the URL so the page stays shareable.

No JS? Fill the form by hand. The geolocation button needs JavaScript.